BEIDOU IGSO-7 (C16)

Last updated on Mon Feb 13 2023 00:03:21 GMT+0000 (Coordinated Universal Time)

1 43539U 18057A 23043.27691414 -.00000102 00000+0 00000+0 0 9993 2 43539 55.1032 173.6245 0056364 228.0968 310.4693 1.00293172 16917

Satellite not in orbit

BEIDOU IGSO-7 (C16)